Russellville, AR

11:49 PM CST on February 11, 2016 (GMT -0600)
Russellville Regional

Weather History for KRUE - December, 2013

Change the Weather History Date:

Thursday, December 5, 2013

  Actual Average (KHOT) Record (KHOT)
Temperature  
Mean Temperature 40 °F -  
Max Temperature 48 °F 55 °F 80 °F (1956)
Min Temperature 33 °F 34 °F 24 °F (2006)
Degree Days  
Heating Degree Days 24    
Moisture  
Dew Point 32 °F    
Average Humidity 84    
Maximum Humidity 96    
Minimum Humidity 60    
Precipitation  
Precipitation 1.28 in - - ()
Sea Level Pressure  
Sea Level Pressure 30.11 in    
Wind  
Wind Speed 6 mph (NNW)    
Max Wind Speed 14 mph    
Max Gust Speed 17 mph    
Visibility 5 miles    
Events Rain , Thunderstorm    
Averages and records for this station are not official NWS values.
T = Trace of Precipitation, MM = Missing Value Source: NWS Daily Summary

Daily Weather History Graph

Daily Weather History Graph

Search for Another Location

Airport or City:

Trip Planner

Search our weather history database for the weather conditions in past years. The results will help you decide how hot, cold, wet, or windy it might be!

Date:

Astronomy

Dec. 05, 2013 Rise Set
Actual Time 7:06 AM CST 4:59 PM CST
Civil Twilight 6:38 AM CST 5:27 PM CST
Nautical Twilight 6:06 AM CST 5:59 PM CST
Astronomical Twilight 5:36 AM CST 6:30 PM CST
Moon 9:29 AM CST (12/5) 8:17 PM CST (12/5)
Length of Visible Light 10h 49m
Length of Day
9h 53m
Waxing Crescent, 11% of the Moon is Illuminated
Dec 5
Waxing Crescent
Dec 9
First Quarter
Dec 17
Full
Dec 25
Last Quarter
Jan 1
New

Hourly Weather History & Observations

Time (CST) Temp. Windchill Dew Point Humidity Pressure Visibility Wind Dir Wind Speed Gust Speed Precip Events Conditions
12:53 AM 48.9 °F - 41.0 °F 74% 29.87 in 9.0 mi WNW 5.8 mph - N/A   Overcast
1:53 AM 46.9 °F - 39.0 °F 74% 29.89 in 10.0 mi WNW 9.2 mph - N/A   Overcast
2:53 AM 46.0 °F 41.4 °F 39.0 °F 76% 29.91 in 10.0 mi West 9.2 mph - N/A   Overcast
3:53 AM 46.0 °F 41.4 °F 37.9 °F 73% 29.94 in 10.0 mi WNW 9.2 mph - N/A   Overcast
4:53 AM 44.1 °F 37.4 °F 35.1 °F 71% 29.97 in 10.0 mi WNW 13.8 mph - N/A   Overcast
5:53 AM 43.0 °F 37.7 °F 35.1 °F 74% 30.02 in 10.0 mi WNW 9.2 mph - N/A   Overcast
6:53 AM 41.0 °F 36.4 °F 30.9 °F 67% 30.05 in 10.0 mi NW 6.9 mph - N/A   Overcast
7:37 AM 41.0 °F 35.8 °F 28.4 °F 61% 30.08 in 10.0 mi NNW 8.1 mph - N/A   Overcast
7:53 AM 39.9 °F 34.5 °F 28.0 °F 63% 30.07 in 10.0 mi North 8.1 mph - N/A   Overcast
8:53 AM 39.9 °F 33.4 °F 27.0 °F 60% 30.08 in 10.0 mi North 10.4 mph - N/A   Overcast
9:53 AM 37.9 °F 30.5 °F 28.9 °F 70% 30.13 in 6.0 mi NNW 11.5 mph 16.1 mph 0.01 in Rain Rain
10:53 AM 36.0 °F 29.6 °F 30.0 °F 79% 30.14 in 4.0 mi North 8.1 mph - 0.03 in Rain Light Rain
11:19 AM 35.6 °F 32.8 °F 30.2 °F 81% 30.13 in 6.0 mi North 3.5 mph - 0.01 in Rain Rain
11:53 AM 35.1 °F 30.1 °F 30.9 °F 85% 30.11 in 10.0 mi North 5.8 mph - 0.02 in   Overcast
12:39 PM 35.6 °F 30.7 °F 30.2 °F 81% 30.11 in 3.0 mi NNW 5.8 mph - 0.01 in Rain Rain
12:46 PM 35.6 °F 30.7 °F 30.2 °F 81% 30.12 in 2.5 mi WNW 5.8 mph - 0.01 in Rain Rain
12:53 PM 35.1 °F 32.2 °F 30.9 °F 85% 30.11 in 1.5 mi NW 3.5 mph - 0.05 in Rain Heavy Rain
1:00 PM 35.6 °F - 32.0 °F 87% 30.12 in 2.0 mi Calm Calm - 0.01 in Rain Rain
1:07 PM 35.6 °F - 32.0 °F 87% 30.12 in 2.5 mi Calm Calm - 0.03 in Rain Rain
1:14 PM 35.6 °F 32.8 °F 32.0 °F 87% 30.12 in 3.0 mi West 3.5 mph - 0.03 in Rain Light Rain
1:22 PM 35.6 °F 31.7 °F 32.0 °F 87% 30.12 in 3.0 mi NNW 4.6 mph - 0.04 in Rain Rain
1:53 PM 36.0 °F 30.3 °F 33.1 °F 89% 30.10 in 4.0 mi NW 6.9 mph - 0.06 in Rain Light Rain
2:01 PM 35.6 °F 30.7 °F 33.8 °F 93% 30.10 in 2.5 mi NNW 5.8 mph - 0.01 in Rain Rain
2:12 PM 35.6 °F 31.7 °F 33.8 °F 93% 30.12 in 2.0 mi NW 4.6 mph - 0.04 in Rain Heavy Rain
2:19 PM 35.6 °F 30.7 °F 33.8 °F 93% 30.13 in 1.2 mi WNW 5.8 mph - 0.09 in Rain , Thunderstorm Heavy Rain
2:30 PM 35.6 °F 31.7 °F 33.8 °F 93% 30.10 in 1.2 mi NNE 4.6 mph - 0.16 in Rain , Thunderstorm Heavy Rain
2:39 PM 35.6 °F 32.8 °F 33.8 °F 93% 30.10 in 2.0 mi North 3.5 mph - 0.20 in Rain Heavy Rain
2:48 PM 35.6 °F 29.9 °F 33.8 °F 93% 30.14 in 3.0 mi WNW 6.9 mph - 0.21 in Rain Rain
2:53 PM 36.0 °F 30.3 °F 33.1 °F 89% 30.12 in 3.0 mi NW 6.9 mph - 0.23 in Rain Heavy Rain
2:58 PM 35.6 °F 30.7 °F 33.8 °F 93% 30.12 in 1.8 mi NNW 5.8 mph - 0.03 in Rain Heavy Rain
3:06 PM 35.6 °F 31.7 °F 33.8 °F 93% 30.12 in 2.0 mi WNW 4.6 mph - 0.06 in Rain Rain
3:24 PM 35.6 °F - 33.8 °F 93% 30.12 in 4.0 mi Calm Calm - 0.09 in Rain Rain
3:49 PM 35.6 °F 30.7 °F 33.8 °F 93% 30.11 in 6.0 mi North 5.8 mph - 0.12 in Rain Light Rain
3:53 PM 36.0 °F 31.1 °F 33.1 °F 89% 30.10 in 8.0 mi North 5.8 mph - 0.12 in   Overcast
4:53 PM 34.0 °F 27.2 °F 30.9 °F 89% 30.14 in 5.0 mi North 8.1 mph - 0.07 in Rain Heavy Rain
5:53 PM 33.1 °F 26.1 °F 28.9 °F 85% 30.16 in 4.0 mi North 8.1 mph - 0.08 in Rain Rain
6:00 PM 33.8 °F 27.7 °F 30.2 °F 87% 30.17 in 6.0 mi North 6.9 mph 17.3 mph 0.01 in Rain Rain
6:32 PM 33.8 °F 30.8 °F 30.2 °F 87% 30.13 in 8.0 mi NE 3.5 mph - 0.02 in Rain Light Freezing Rain
6:53 PM 34.0 °F 27.2 °F 30.0 °F 85% 30.12 in 5.0 mi North 8.1 mph - 0.04 in Rain Light Freezing Rain
7:00 PM 33.8 °F 28.6 °F 30.2 °F 87% 30.12 in 4.0 mi NNE 5.8 mph - 0.03 in Rain Heavy Rain
7:25 PM 33.8 °F - 30.2 °F 87% 30.15 in 7.0 mi Calm Calm - 0.06 in Rain Rain
7:53 PM 34.0 °F 28.8 °F 30.9 °F 89% 30.19 in 7.0 mi NNW 5.8 mph - 0.09 in   Overcast
8:10 PM 33.8 °F 29.6 °F 30.2 °F 87% 30.17 in 6.0 mi Variable 4.6 mph - 0.02 in Rain Rain
8:53 PM 34.0 °F 31.0 °F 30.9 °F 89% 30.14 in 6.0 mi North 3.5 mph - 0.12 in Rain Rain
9:01 PM 33.8 °F 30.8 °F 30.2 °F 87% 30.16 in 6.0 mi Variable 3.5 mph - 0.01 in Rain Rain
9:12 PM 33.8 °F 28.6 °F 30.2 °F 87% 30.17 in 4.0 mi NNE 5.8 mph - 0.05 in Rain Heavy Rain
9:53 PM 33.1 °F 28.7 °F 30.0 °F 89% 30.17 in 4.0 mi NNE 4.6 mph - 0.21 in Rain Rain
10:26 PM 33.8 °F 29.6 °F 30.2 °F 87% 30.19 in 5.0 mi NW 4.6 mph - 0.06 in Rain Rain
10:53 PM 33.1 °F - 32.0 °F 96% 30.19 in 5.0 mi Calm Calm - 0.10 in Rain Rain
11:06 PM 33.8 °F 28.6 °F 30.2 °F 87% 30.18 in 6.0 mi NNW 5.8 mph - 0.01 in Rain Rain
11:53 PM 33.1 °F 30.0 °F 30.9 °F 92% 30.19 in 5.0 mi NNW 3.5 mph - 0.05 in Rain Rain